User: anonymous   Login
Location: Los Gatos B&B
(42.6926°N, 77.0646°W)
Time: 10:08:24
(UTC-04:00)
Language:

Cosmos 2263 Rocket - Orbit

View from above orbital plane
View from above orbital plane
View from above satellite
View from above satellite

Ground track
Ground track

The orbit data is extracted from the following two-line orbital elements,

1 22803U 93059B   17293.61799432 +.00000191 +00000-0 +11905-3 0  9994
2 22803 070.9914 345.1268 0018002 201.8236 158.2123 14.16780673245791
Epoch (UTC): 20 October 2017 14:49:54
Eccentricity: 0.0018002
inclination: 70.9914°
perigee height: 823 km
apogee height: 849 km
right ascension of ascending node: 345.1268°
argument of perigee: 201.8236°
revolutions per day: 14.16780673
mean anomaly at epoch: 158.2123°
orbit number at epoch: 24579

The dashed part of the orbit path shows where the satellite is in the earth's shadow,  

DLR